This is the latest recevied weather packets stored in our database for station/object N0NB. If no packets are shown the sender has not sent any weather packets the latest 10 day(s).
| Time | Temp. | Humidity | Pressure | Rain* | Wind** | Luminosity | Snow |
|---|---|---|---|---|---|---|---|
| 1788312316 | 30° C | 53% | 1009.7 hPa | 0 mm | - | 0 W/m² | - |
| 1788311717 | 30° C | 53% | 1009.7 hPa | 0 mm | - | 0 W/m² | - |
| 1788311116 | 30° C | 55% | 1009.6 hPa | 0 mm | - | 0 W/m² | - |
| 1788310516 | 30° C | 56% | 1009.5 hPa | 0 mm | - | 3 W/m² | - |
| 1788309916 | 30.56° C | 55% | 1009.5 hPa | 0 mm | - | 8 W/m² | - |
| 1788309316 | 31.11° C | 54% | 1009.7 hPa | 0 mm | - | 23 W/m² | - |
| 1788308716 | 31.67° C | 52% | 1009.8 hPa | 0 mm | - | 37 W/m² | - |
| 1788308116 | 32.22° C | 49% | 1010 hPa | 0 mm | - | 62 W/m² | - |
| 1788307516 | 32.78° C | 47% | 1010 hPa | 0 mm | - | 89 W/m² | - |
| 1788306916 | 33.33° C | 46% | 1010.1 hPa | 0 mm | - | 118 W/m² | - |
| 1788306316 | 33.33° C | 45% | 1010.1 hPa | 0 mm | - | 150 W/m² | - |
| 1788305716 | 33.89° C | 45% | 1010.2 hPa | 0 mm | - | 186 W/m² | - |
| 1788305116 | 34.44° C | 45% | 1010.3 hPa | 0 mm | - | 219 W/m² | - |
| 1788304516 | 34.44° C | 45% | 1010.4 hPa | 0 mm | - | 248 W/m² | - |
| 1788303916 | 34.44° C | 44% | 1010.4 hPa | 0 mm | - | 275 W/m² | - |
| 1788303316 | 35° C | 41% | 1010.6 hPa | 0 mm | - | 305 W/m² | - |
| 1788302716 | 35° C | 42% | 1010.7 hPa | 0 mm | - | 334 W/m² | - |
| 1788302116 | 35° C | 42% | 1010.7 hPa | 0 mm | - | 361 W/m² | - |
| 1788301516 | 35.56° C | 43% | 1010.8 hPa | 0 mm | - | 389 W/m² | - |
| 1788300916 | 35.56° C | 42% | 1010.8 hPa | 0 mm | - | 421 W/m² | - |
| 1788300316 | 35.56° C | 42% | 1010.9 hPa | 0 mm | - | 446 W/m² | - |
| 1788299716 | 35.56° C | 39% | 1010.8 hPa | 0 mm | - | 475 W/m² | - |
| 1788299116 | 36.11° C | 38% | 1010.9 hPa | 0 mm | - | 497 W/m² | - |
| 1788298516 | 36.11° C | 41% | 1011.1 hPa | 0 mm | - | 519 W/m² | - |
| 1788297916 | 36.11° C | 38% | 1011.1 hPa | 0 mm | - | 549 W/m² | - |
* Rain latest hour (hover to see other rain measurements)
** Current wind speed in m/s (hover to see current wind gust speed)